Data No.,UTC Date,UTC Time,Latitude,Longitude,Course(deg),Temp(degC)
21,2004/10/11,4:48:00,00-33.7100N,118-20.2300E,86,28.993
22,2004/10/11,4:49:00,00-33.7200N,118-20.4700E,86,28.989
23,2004/10/11,4:50:00,00-33.7400N,118-20.7200E,86,28.985
24,2004/10/11,4:51:00,00-33.7600N,118-20.9600E,85,28.972
25,2004/10/11,4:52:00,00-33.7800N,118-21.2000E,85,28.995
26,2004/10/11,4:53:00,00-33.7900N,118-21.4400E,85,28.988
27,2004/10/11,4:54:00,00-33.8100N,118-21.7000E,85,28.986
28,2004/10/11,4:55:00,00-33.8300N,118-21.9400E,86,28.975
29,2004/10/11,4:56:00,00-33.8500N,118-22.1800E,85,28.996
30,2004/10/11,4:57:00,00-33.8700N,118-22.4200E,85,28.999
31,2004/10/11,4:58:00,00-33.8800N,118-22.6700E,85,28.991
32,2004/10/11,4:59:00,00-33.9000N,118-22.9100E,85,28.997
33,2004/10/11,5:00:00,00-33.9200N,118-23.1500E,85,28.978
34,2004/10/11,5:01:00,00-33.9500N,118-23.4000E,85,28.975
35,2004/10/11,5:02:00,00-33.9600N,118-23.6400E,85,29.008
36,2004/10/11,5:03:00,00-33.9800N,118-23.8800E,85,29.011
37,2004/10/11,5:04:00,00-34.0000N,118-24.1200E,86,28.998
38,2004/10/11,5:05:00,00-34.0200N,118-24.3800E,86,28.979
39,2004/10/11,5:06:00,00-34.0300N,118-24.6300E,86,28.983
40,2004/10/11,5:07:00,00-34.0500N,118-24.8600E,85,28.974
41,2004/10/11,5:08:00,00-34.0700N,118-25.1100E,85,28.969
42,2004/10/11,5:09:00,00-34.0800N,118-25.3500E,86,28.987
43,2004/10/11,5:10:00,00-34.1100N,118-25.5900E,84,28.964
44,2004/10/11,5:11:00,00-34.1300N,118-25.8400E,83,28.939
45,2004/10/11,5:12:00,00-34.1600N,118-26.0800E,82,28.932
46,2004/10/11,5:13:00,00-34.1900N,118-26.3100E,83,28.917
47,2004/10/11,5:14:00,00-34.2200N,118-26.5600E,83,28.928
48,2004/10/11,5:15:00,00-34.2500N,118-26.8100E,83,28.925
49,2004/10/11,5:16:00,00-34.2800N,118-27.0500E,82,28.921
50,2004/10/11,5:17:00,00-34.3100N,118-27.3100E,83,28.913
51,2004/10/11,5:18:00,00-34.3400N,118-27.5500E,83,28.904
52,2004/10/11,5:19:00,00-34.3600N,118-27.8000E,84,28.918
53,2004/10/11,5:20:00,00-34.3900N,118-28.0400E,84,28.925
54,2004/10/11,5:21:00,00-34.4100N,118-28.2800E,84,28.956
55,2004/10/11,5:22:00,00-34.4400N,118-28.5200E,81,28.954
56,2004/10/11,5:23:00,00-34.4900N,118-28.7500E,75,28.949
57,2004/10/11,5:24:00,00-34.5600N,118-28.9900E,74,28.946
58,2004/10/11,5:25:00,00-34.6200N,118-29.2200E,76,28.923
59,2004/10/11,5:26:00,00-34.6700N,118-29.4600E,76,28.933
60,2004/10/11,5:27:00,00-34.7300N,118-29.7000E,76,28.965
61,2004/10/11,5:28:00,00-34.7900N,118-29.9500E,76,28.956
62,2004/10/11,5:29:00,00-34.8500N,118-30.1900E,76,28.97
63,2004/10/11,5:30:00,00-34.9100N,118-30.4300E,76,29.021
64,2004/10/11,5:31:00,00-34.9700N,118-30.6700E,76,29.026
65,2004/10/11,5:32:00,00-35.0200N,118-30.9000E,76,29.017
66,2004/10/11,5:33:00,00-35.0800N,118-31.1400E,75,29.022
67,2004/10/11,5:34:00,00-35.1500N,118-31.3800E,75,29.024
68,2004/10/11,5:35:00,00-35.2000N,118-31.6100E,76,28.976
69,2004/10/11,5:36:00,00-35.2600N,118-31.8600E,76,28.958
70,2004/10/11,5:37:00,00-35.3200N,118-32.1000E,76,28.97
71,2004/10/11,5:38:00,00-35.3800N,118-32.3300E,76,28.985
72,2004/10/11,5:39:00,00-35.4400N,118-32.5900E,76,28.987
73,2004/10/11,5:40:00,00-35.5000N,118-32.8300E,76,29.064
74,2004/10/11,5:41:00,00-35.5500N,118-33.0700E,76,29.055
75,2004/10/11,5:42:00,00-35.6100N,118-33.3100E,76,29.071
76,2004/10/11,5:43:00,00-35.6700N,118-33.5500E,76,28.992
77,2004/10/11,5:44:00,00-35.7200N,118-33.7900E,76,28.981
78,2004/10/11,5:45:00,00-35.7800N,118-34.0300E,76,28.981
79,2004/10/11,5:46:00,00-35.8400N,118-34.2700E,76,28.963
80,2004/10/11,5:47:00,00-35.9000N,118-34.5100E,76,28.96
81,2004/10/11,5:48:00,00-35.9600N,118-34.7500E,76,28.936
82,2004/10/11,5:49:00,00-36.0100N,118-34.9900E,76,28.915
83,2004/10/11,5:50:00,00-36.0700N,118-35.2300E,76,28.933
84,2004/10/11,5:51:00,00-36.1300N,118-35.4900E,76,28.935
85,2004/10/11,5:52:00,00-36.1900N,118-35.7300E,76,28.921
86,2004/10/11,5:53:00,00-36.2500N,118-35.9700E,76,28.953
87,2004/10/11,5:54:00,00-36.3000N,118-36.2100E,77,28.975
88,2004/10/11,5:55:00,00-36.3500N,118-36.4500E,77,28.97
89,2004/10/11,5:56:00,00-36.4100N,118-36.6900E,77,29.047
90,2004/10/11,5:57:00,00-36.4700N,118-36.9300E,75,29.053
91,2004/10/11,5:58:00,00-36.5300N,118-37.1800E,75,29.08
92,2004/10/11,5:59:00,00-36.5900N,118-37.4100E,76,28.976
93,2004/10/11,6:00:00,00-36.6500N,118-37.6500E,75,28.926
94,2004/10/11,6:01:00,00-36.7200N,118-37.8900E,75,28.901
95,2004/10/11,6:02:00,00-36.7800N,118-38.1500E,75,28.889
96,2004/10/11,6:03:00,00-36.8500N,118-38.3900E,75,28.84
97,2004/10/11,6:04:00,00-36.9100N,118-38.6300E,75,28.831
98,2004/10/11,6:05:00,00-36.9800N,118-38.8600E,75,28.87
99,2004/10/11,6:06:00,00-37.0400N,118-39.1000E,75,28.948
100,2004/10/11,6:07:00,00-37.1000N,118-39.3500E,75,28.989
101,2004/10/11,6:08:00,00-37.1600N,118-39.5900E,75,29.047
102,2004/10/11,6:09:00,00-37.2200N,118-39.8300E,75,29.083
103,2004/10/11,6:10:00,00-37.2900N,118-40.0700E,75,29.135
104,2004/10/11,6:11:00,00-37.3500N,118-40.3100E,74,29.019
105,2004/10/11,6:12:00,00-37.4200N,118-40.5500E,75,29.028
106,2004/10/11,6:13:00,00-37.4800N,118-40.8000E,76,29.095
107,2004/10/11,6:14:00,00-37.5400N,118-41.0500E,75,29.203
108,2004/10/11,6:15:00,00-37.6200N,118-41.2900E,72,29.121
109,2004/10/11,6:16:00,00-37.6900N,118-41.5200E,72,29.009
110,2004/10/11,6:17:00,00-37.7600N,118-41.7600E,74,29.01
111,2004/10/11,6:18:00,00-37.8300N,118-42.0000E,73,29.052
112,2004/10/11,6:19:00,00-37.9000N,118-42.2300E,73,29.062
113,2004/10/11,6:20:00,00-37.9700N,118-42.4700E,73,29.045
114,2004/10/11,6:21:00,00-38.0400N,118-42.7100E,73,29.068
115,2004/10/11,6:22:00,00-38.1100N,118-42.9400E,73,29.015
116,2004/10/11,6:23:00,00-38.1800N,118-43.1700E,73,29.158
117,2004/10/11,6:24:00,00-38.2600N,118-43.4100E,73,29.103
118,2004/10/11,6:25:00,00-38.3300N,118-43.6600E,72,29.024
119,2004/10/11,6:26:00,00-38.4100N,118-43.9000E,73,29.111
120,2004/10/11,6:27:00,00-38.4800N,118-44.1300E,73,29.017
121,2004/10/11,6:28:00,00-38.5500N,118-44.3700E,72,29.087
122,2004/10/11,6:29:00,00-38.6300N,118-44.6000E,73,29.154
123,2004/10/11,6:30:00,00-38.7000N,118-44.8400E,73,29.088
124,2004/10/11,6:31:00,00-38.7700N,118-45.0700E,73,29.076
125,2004/10/11,6:32:00,00-38.8400N,118-45.3100E,72,29.066
126,2004/10/11,6:33:00,00-38.9200N,118-45.5500E,72,29.06
127,2004/10/11,6:34:00,00-38.9900N,118-45.7800E,73,29.154
128,2004/10/11,6:35:00,00-39.0600N,118-46.0200E,73,29.185
129,2004/10/11,6:36:00,00-39.1400N,118-46.2700E,73,29.32
130,2004/10/11,6:37:00,00-39.2100N,118-46.5100E,73,29.278
131,2004/10/11,6:38:00,00-39.2900N,118-46.7400E,72,29.279
132,2004/10/11,6:39:00,00-39.3600N,118-46.9700E,73,29.374
133,2004/10/11,6:40:00,00-39.4300N,118-47.2100E,72,29.386
134,2004/10/11,6:41:00,00-39.5000N,118-47.4400E,72,29.139
135,2004/10/11,6:42:00,00-39.5800N,118-47.6800E,72,28.823
136,2004/10/11,6:43:00,00-39.6500N,118-47.9100E,72,28.81
137,2004/10/11,6:44:00,00-39.7200N,118-48.1400E,72,28.79
138,2004/10/11,6:45:00,00-39.8000N,118-48.3700E,72,28.767
139,2004/10/11,6:46:00,00-39.8700N,118-48.6000E,72,28.825
140,2004/10/11,6:47:00,00-39.9500N,118-48.8600E,72,28.8
141,2004/10/11,6:48:00,00-40.0300N,118-49.0900E,71,28.754
142,2004/10/11,6:49:00,00-40.1100N,118-49.3200E,71,28.748
143,2004/10/11,6:50:00,00-40.1800N,118-49.5600E,71,28.76
144,2004/10/11,6:51:00,00-40.2600N,118-49.7900E,71,28.741
145,2004/10/11,6:52:00,00-40.3400N,118-50.0200E,71,28.742
146,2004/10/11,6:53:00,00-40.4200N,118-50.2600E,71,28.706
147,2004/10/11,6:54:00,00-40.5000N,118-50.4900E,71,28.71
148,2004/10/11,6:55:00,00-40.5800N,118-50.7200E,71,28.749
149,2004/10/11,6:56:00,00-40.6500N,118-50.9600E,71,28.739
150,2004/10/11,6:57:00,00-40.7300N,118-51.1900E,71,28.743
151,2004/10/11,6:58:00,00-40.8100N,118-51.4300E,71,28.738
152,2004/10/11,6:59:00,00-40.8900N,118-51.6800E,71,28.739
153,2004/10/11,7:00:00,00-40.9700N,118-51.9200E,71,28.664
154,2004/10/11,7:01:00,00-41.0500N,118-52.1500E,71,28.669
155,2004/10/11,7:02:00,00-41.1300N,118-52.3900E,71,28.692
156,2004/10/11,7:03:00,00-41.2000N,118-52.6200E,73,28.6
157,2004/10/11,7:04:00,00-41.2700N,118-52.8700E,75,28.593
158,2004/10/11,7:05:00,00-41.3300N,118-53.1100E,75,28.676
159,2004/10/11,7:06:00,00-41.4000N,118-53.3400E,72,28.923
160,2004/10/11,7:07:00,00-41.4800N,118-53.5800E,71,28.875
161,2004/10/11,7:08:00,00-41.5600N,118-53.8100E,71,29.047
162,2004/10/11,7:09:00,00-41.6500N,118-54.0500E,68,29.089
163,2004/10/11,7:10:00,00-41.7600N,118-54.3000E,66,28.859
164,2004/10/11,7:11:00,00-41.8500N,118-54.5200E,67,28.777
165,2004/10/11,7:12:00,00-41.9500N,118-54.7600E,67,28.677
166,2004/10/11,7:13:00,00-42.0400N,118-54.9800E,66,28.617
167,2004/10/11,7:14:00,00-42.1400N,118-55.2100E,66,28.612
168,2004/10/11,7:15:00,00-42.2400N,118-55.4300E,66,28.52
169,2004/10/11,7:16:00,00-42.3300N,118-55.6700E,71,28.467
170,2004/10/11,7:17:00,00-42.4000N,118-55.9100E,72,28.564
171,2004/10/11,7:18:00,00-42.4800N,118-56.1400E,71,28.663
172,2004/10/11,7:19:00,00-42.5600N,118-56.3800E,71,28.653
173,2004/10/11,7:20:00,00-42.6400N,118-56.6200E,71,28.627
174,2004/10/11,7:21:00,00-42.7300N,118-56.8700E,71,28.651
175,2004/10/11,7:22:00,00-42.8100N,118-57.1100E,70,28.666
176,2004/10/11,7:23:00,00-42.8900N,118-57.3400E,71,28.698
177,2004/10/11,7:24:00,00-42.9700N,118-57.5700E,71,28.814
178,2004/10/11,7:25:00,00-43.0500N,118-57.8100E,70,28.833
179,2004/10/11,7:26:00,00-43.1300N,118-58.0400E,70,28.731
180,2004/10/11,7:27:00,00-43.2200N,118-58.2800E,70,28.781
181,2004/10/11,7:28:00,00-43.3000N,118-58.5100E,70,28.759
182,2004/10/11,7:29:00,00-43.3800N,118-58.7400E,70,28.771
183,2004/10/11,7:30:00,00-43.4600N,118-58.9700E,71,28.703
184,2004/10/11,7:31:00,00-43.5400N,118-59.2100E,70,28.729
185,2004/10/11,7:32:00,00-43.6200N,118-59.4400E,71,28.763
186,2004/10/11,7:33:00,00-43.7100N,118-59.6900E,70,28.643
187,2004/10/11,7:34:00,00-43.7900N,118-59.9200E,71,28.679
188,2004/10/11,7:35:00,00-43.8700N,119-00.1500E,70,28.69
189,2004/10/11,7:36:00,00-43.9500N,119-00.3800E,70,28.721
190,2004/10/11,7:37:00,00-44.0300N,119-00.6100E,70,28.757
191,2004/10/11,7:38:00,00-44.1200N,119-00.8300E,68,28.777
192,2004/10/11,7:39:00,00-44.2100N,119-01.0600E,67,28.773
193,2004/10/11,7:40:00,00-44.3100N,119-01.2700E,67,28.795
194,2004/10/11,7:41:00,00-44.4000N,119-01.4900E,66,28.767
195,2004/10/11,7:42:00,00-44.4900N,119-01.7100E,66,28.78
196,2004/10/11,7:43:00,00-44.5900N,119-01.9400E,67,28.786
197,2004/10/11,7:44:00,00-44.6800N,119-02.1800E,67,28.796
198,2004/10/11,7:45:00,00-44.7800N,119-02.4000E,66,28.798
199,2004/10/11,7:46:00,00-44.8700N,119-02.6200E,67,28.763
200,2004/10/11,7:47:00,00-44.9600N,119-02.8400E,67,28.725
201,2004/10/11,7:48:00,00-45.0500N,119-03.0500E,67,28.744
202,2004/10/11,7:49:00,00-45.1400N,119-03.2800E,66,28.738
203,2004/10/11,7:50:00,00-45.2300N,119-03.4900E,66,28.762
204,2004/10/11,7:51:00,00-45.3300N,119-03.7000E,67,28.778
205,2004/10/11,7:52:00,00-45.4200N,119-03.9300E,66,28.788
206,2004/10/11,7:53:00,00-45.5100N,119-04.1400E,66,28.789
207,2004/10/11,7:54:00,00-45.6100N,119-04.3600E,66,28.822
208,2004/10/11,7:55:00,00-45.7100N,119-04.6000E,67,28.86
209,2004/10/11,7:56:00,00-45.8000N,119-04.8100E,67,28.847
210,2004/10/11,7:57:00,00-45.8900N,119-05.0300E,67,28.9
211,2004/10/11,7:58:00,00-46.0000N,119-05.2400E,59,28.889
212,2004/10/11,7:59:00,00-46.1400N,119-05.4100E,46,28.764
213,2004/10/11,8:00:00,00-46.3000N,119-05.5700E,43,28.761
214,2004/10/11,8:01:00,00-46.4600N,119-05.7200E,45,28.775
215,2004/10/11,8:02:00,00-46.6400N,119-05.8700E,37,28.849
216,2004/10/11,8:03:00,00-46.8200N,119-05.9900E,33,28.858
217,2004/10/11,8:04:00,00-47.0100N,119-06.1200E,34,28.87
218,2004/10/11,8:05:00,00-47.2200N,119-06.2100E,20,28.889
219,2004/10/11,8:06:00,00-47.4400N,119-06.2900E,19,28.891
220,2004/10/11,8:07:00,00-47.6500N,119-06.3600E,19,28.902
221,2004/10/11,8:08:00,00-47.8700N,119-06.4400E,18,28.926
222,2004/10/11,8:09:00,00-48.0900N,119-06.5100E,18,28.965
223,2004/10/11,8:10:00,00-48.3100N,119-06.5800E,18,28.935
224,2004/10/11,8:11:00,00-48.5200N,119-06.6500E,18,28.919
225,2004/10/11,8:12:00,00-48.7500N,119-06.7300E,18,28.876
226,2004/10/11,8:13:00,00-48.9700N,119-06.8000E,18,28.824
227,2004/10/11,8:14:00,00-49.1800N,119-06.8800E,18,28.808
228,2004/10/11,8:15:00,00-49.4100N,119-06.9500E,19,28.861
229,2004/10/11,8:16:00,00-49.6400N,119-07.0300E,20,28.907
230,2004/10/11,8:17:00,00-49.8700N,119-07.1200E,19,28.939
231,2004/10/11,8:18:00,00-50.1000N,119-07.2000E,19,28.908
232,2004/10/11,8:19:00,00-50.3200N,119-07.2700E,19,28.93
233,2004/10/11,8:20:00,00-50.5400N,119-07.3500E,19,28.966
234,2004/10/11,8:21:00,00-50.7700N,119-07.4300E,19,28.963
235,2004/10/11,8:22:00,00-51.0000N,119-07.5100E,18,28.985
236,2004/10/11,8:23:00,00-51.2300N,119-07.5900E,19,28.971
237,2004/10/11,8:24:00,00-51.4500N,119-07.6700E,19,28.978
238,2004/10/11,8:25:00,00-51.6700N,119-07.7400E,18,29.015
239,2004/10/11,8:26:00,00-51.9000N,119-07.8100E,17,29.052
240,2004/10/11,8:27:00,00-52.1300N,119-07.8900E,18,29.073
241,2004/10/11,8:28:00,00-52.3500N,119-07.9700E,19,29.094
242,2004/10/11,8:29:00,00-52.6000N,119-08.0500E,19,29.06
243,2004/10/11,8:30:00,00-52.8300N,119-08.1300E,19,29.109
244,2004/10/11,8:31:00,00-53.0500N,119-08.2100E,18,29.078
245,2004/10/11,8:32:00,00-53.2800N,119-08.2800E,18,29.022
246,2004/10/11,8:33:00,00-53.5100N,119-08.3700E,19,29.018
247,2004/10/11,8:34:00,00-53.7400N,119-08.4500E,20,29.04
248,2004/10/11,8:35:00,00-53.9600N,119-08.5300E,19,29.03
249,2004/10/11,8:36:00,00-54.1900N,119-08.6000E,18,29.027
250,2004/10/11,8:37:00,00-54.4100N,119-08.6800E,18,29.013
251,2004/10/11,8:38:00,00-54.6400N,119-08.7600E,19,28.98
252,2004/10/11,8:39:00,00-54.8600N,119-08.8300E,18,28.958
253,2004/10/11,8:40:00,00-55.1000N,119-08.9200E,18,28.961
254,2004/10/11,8:41:00,00-55.3300N,119-08.9900E,18,28.915
255,2004/10/11,8:42:00,00-55.5500N,119-09.0700E,19,28.865
256,2004/10/11,8:43:00,00-55.7700N,119-09.1500E,19,28.975
257,2004/10/11,8:44:00,00-55.9900N,119-09.2100E,10,29.005
258,2004/10/11,8:45:00,00-56.2200N,119-09.2500E,8,28.974
259,2004/10/11,8:46:00,00-56.4400N,119-09.2700E,5,28.952
260,2004/10/11,8:47:00,00-56.6600N,119-09.3000E,6,28.976
261,2004/10/11,8:48:00,00-56.8900N,119-09.3300E,7,28.755
262,2004/10/11,8:49:00,00-57.1200N,119-09.3600E,7,28.784
263,2004/10/11,8:50:00,00-57.3400N,119-09.3900E,7,28.744
264,2004/10/11,8:51:00,00-57.5900N,119-09.4200E,7,28.723
265,2004/10/11,8:52:00,00-57.8100N,119-09.4500E,6,28.706
266,2004/10/11,8:53:00,00-58.0400N,119-09.4700E,6,28.704
267,2004/10/11,8:54:00,00-58.2600N,119-09.5000E,6,28.709
268,2004/10/11,8:55:00,00-58.4800N,119-09.5300E,6,28.728
269,2004/10/11,8:56:00,00-58.7100N,119-09.5500E,6,28.759
270,2004/10/11,8:57:00,00-58.9300N,119-09.5800E,7,28.767
271,2004/10/11,8:58:00,00-59.1600N,119-09.6100E,7,28.805
272,2004/10/11,8:59:00,00-59.3800N,119-09.6400E,6,28.812
273,2004/10/11,9:00:00,00-59.6100N,119-09.6700E,6,28.809
274,2004/10/11,9:01:00,00-59.8300N,119-09.6900E,6,28.838
275,2004/10/11,9:02:00,01-00.0800N,119-09.7300E,9,28.866
276,2004/10/11,9:03:00,01-00.3000N,119-09.7600E,9,28.958
277,2004/10/11,9:04:00,01-00.5200N,119-09.8000E,8,29.028
278,2004/10/11,9:05:00,01-00.7500N,119-09.8300E,9,28.986
279,2004/10/11,9:06:00,01-00.9800N,119-09.8700E,9,29.001
280,2004/10/11,9:07:00,01-01.2000N,119-09.9000E,8,28.805
281,2004/10/11,9:08:00,01-01.4300N,119-09.9400E,8,28.872
282,2004/10/11,9:09:00,01-01.6500N,119-09.9700E,8,28.879
283,2004/10/11,9:10:00,01-01.8700N,119-10.0000E,7,28.969
284,2004/10/11,9:11:00,01-02.1000N,119-10.0300E,7,28.949
285,2004/10/11,9:12:00,01-02.3200N,119-10.0600E,7,28.89
286,2004/10/11,9:13:00,01-02.5500N,119-10.0900E,8,28.833
287,2004/10/11,9:14:00,01-02.7900N,119-10.1300E,9,28.754
288,2004/10/11,9:15:00,01-03.0100N,119-10.1700E,9,28.779
289,2004/10/11,9:16:00,01-03.2300N,119-10.2000E,8,28.8
290,2004/10/11,9:17:00,01-03.4600N,119-10.2300E,7,28.873
291,2004/10/11,9:18:00,01-03.6700N,119-10.2600E,8,28.898
292,2004/10/11,9:19:00,01-03.8900N,119-10.3000E,10,28.852
293,2004/10/11,9:20:00,01-04.1100N,119-10.3400E,9,28.819
294,2004/10/11,9:21:00,01-04.3300N,119-10.3700E,8,28.827
295,2004/10/11,9:22:00,01-04.5500N,119-10.4100E,8,28.842
296,2004/10/11,9:23:00,01-04.7600N,119-10.4400E,8,28.796
297,2004/10/11,9:24:00,01-04.9800N,119-10.4700E,9,28.788
298,2004/10/11,9:25:00,01-05.2200N,119-10.5100E,9,28.758
299,2004/10/11,9:26:00,01-05.4300N,119-10.5500E,8,28.797
300,2004/10/11,9:27:00,01-05.6600N,119-10.5800E,8,28.727
301,2004/10/11,9:28:00,01-05.8700N,119-10.6100E,9,28.701
302,2004/10/11,9:29:00,01-06.0900N,119-10.6500E,9,28.674
303,2004/10/11,9:30:00,01-06.3100N,119-10.6900E,9,28.682
304,2004/10/11,9:31:00,01-06.5200N,119-10.7200E,9,28.695
305,2004/10/11,9:32:00,01-06.7400N,119-10.7600E,8,28.679
306,2004/10/11,9:33:00,01-06.9500N,119-10.7900E,9,28.676
307,2004/10/11,9:34:00,01-07.1800N,119-10.8300E,10,28.628
308,2004/10/11,9:35:00,01-07.3900N,119-10.8700E,10,28.618
309,2004/10/11,9:36:00,01-07.6200N,119-10.9100E,9,28.609
310,2004/10/11,9:37:00,01-07.8300N,119-10.9500E,10,28.603
311,2004/10/11,9:38:00,01-08.0500N,119-10.9900E,10,28.586
312,2004/10/11,9:39:00,01-08.2700N,119-11.0300E,9,28.58
313,2004/10/11,9:40:00,01-08.4900N,119-11.0600E,7,28.594
314,2004/10/11,9:41:00,01-08.6900N,119-11.0900E,8,28.634
315,2004/10/11,9:42:00,01-08.9100N,119-11.1200E,9,28.625
316,2004/10/11,9:43:00,01-09.1300N,119-11.1600E,9,28.602
317,2004/10/11,9:44:00,01-09.3400N,119-11.2000E,9,28.615
318,2004/10/11,9:45:00,01-09.5500N,119-11.2400E,10,28.615
319,2004/10/11,9:46:00,01-09.7700N,119-11.2800E,10,28.646
320,2004/10/11,9:47:00,01-09.9800N,119-11.3100E,9,28.659
321,2004/10/11,9:48:00,01-10.2100N,119-11.3500E,9,28.692
322,2004/10/11,9:49:00,01-10.4300N,119-11.3800E,9,28.64
323,2004/10/11,9:50:00,01-10.6300N,119-11.4200E,10,28.633
324,2004/10/11,9:51:00,01-10.8400N,119-11.4600E,10,28.616
325,2004/10/11,9:52:00,01-11.0600N,119-11.5000E,10,28.606
326,2004/10/11,9:53:00,01-11.2700N,119-11.5500E,12,28.592
327,2004/10/11,9:54:00,01-11.4800N,119-11.5900E,11,28.598
328,2004/10/11,9:55:00,01-11.6900N,119-11.6300E,10,28.613
329,2004/10/11,9:56:00,01-11.9000N,119-11.6700E,10,28.612
330,2004/10/11,9:57:00,01-12.1100N,119-11.7100E,10,28.585
331,2004/10/11,9:58:00,01-12.3200N,119-11.7400E,9,28.58
332,2004/10/11,9:59:00,01-12.5400N,119-11.7800E,9,28.594
333,2004/10/11,10:00:00,01-12.7500N,119-11.8200E,12,28.405
334,2004/10/11,10:01:00,01-12.9700N,119-11.8700E,12,28.42
335,2004/10/11,10:02:00,01-13.1600N,119-11.9200E,13,28.521
336,2004/10/11,10:03:00,01-13.3700N,119-11.9600E,13,28.514
337,2004/10/11,10:04:00,01-13.5800N,119-12.0100E,11,28.566
338,2004/10/11,10:05:00,01-13.7800N,119-12.0500E,10,28.569
339,2004/10/11,10:06:00,01-13.9800N,119-12.0900E,10,28.438
340,2004/10/11,10:07:00,01-14.1900N,119-12.1200E,10,28.357
341,2004/10/11,10:08:00,01-14.4000N,119-12.1600E,11,28.374
342,2004/10/11,10:09:00,01-14.6000N,119-12.2100E,12,28.495
343,2004/10/11,10:10:00,01-14.8000N,119-12.2600E,13,28.57
344,2004/10/11,10:11:00,01-15.0200N,119-12.3100E,13,28.473
345,2004/10/11,10:12:00,01-15.2300N,119-12.3500E,12,28.469
346,2004/10/11,10:13:00,01-15.4400N,119-12.4000E,13,28.428
347,2004/10/11,10:14:00,01-15.6400N,119-12.4600E,14,28.367
348,2004/10/11,10:15:00,01-15.8500N,119-12.5100E,15,28.37
349,2004/10/11,10:16:00,01-16.0600N,119-12.5700E,14,28.391
350,2004/10/11,10:17:00,01-16.2600N,119-12.6200E,14,28.396
351,2004/10/11,10:18:00,01-16.4800N,119-12.6800E,14,28.421
352,2004/10/11,10:19:00,01-16.6900N,119-12.7300E,14,28.438
353,2004/10/11,10:20:00,01-16.9000N,119-12.7900E,14,28.459
354,2004/10/11,10:21:00,01-17.1100N,119-12.8400E,15,28.453
355,2004/10/11,10:22:00,01-17.3300N,119-12.9000E,15,28.424
356,2004/10/11,10:23:00,01-17.5600N,119-12.9700E,15,28.49
357,2004/10/11,10:24:00,01-17.7700N,119-13.0300E,16,28.51
358,2004/10/11,10:25:00,01-17.9900N,119-13.0900E,15,28.584
359,2004/10/11,10:26:00,01-18.2000N,119-13.1500E,14,28.602
360,2004/10/11,10:27:00,01-18.4200N,119-13.2100E,15,28.527
361,2004/10/11,10:28:00,01-18.6400N,119-13.2700E,16,28.45
362,2004/10/11,10:29:00,01-18.8500N,119-13.3300E,14,28.428
363,2004/10/11,10:30:00,01-19.0700N,119-13.3900E,14,28.423
364,2004/10/11,10:31:00,01-19.2900N,119-13.4400E,12,28.425
365,2004/10/11,10:32:00,01-19.5100N,119-13.4800E,10,28.395
366,2004/10/11,10:33:00,01-19.7300N,119-13.5200E,11,28.39
367,2004/10/11,10:34:00,01-19.9700N,119-13.5800E,12,28.386
368,2004/10/11,10:35:00,01-20.2000N,119-13.6300E,12,28.405
369,2004/10/11,10:36:00,01-20.4200N,119-13.6700E,10,28.383
370,2004/10/11,10:37:00,01-20.6400N,119-13.7100E,9,28.353
371,2004/10/11,10:38:00,01-20.8600N,119-13.7500E,7,28.405
372,2004/10/11,10:39:00,01-21.0800N,119-13.7800E,7,28.48
373,2004/10/11,10:40:00,01-21.3000N,119-13.8100E,8,28.502
374,2004/10/11,10:41:00,01-21.5300N,119-13.8500E,9,28.361
375,2004/10/11,10:42:00,01-21.7400N,119-13.8800E,8,28.457
376,2004/10/11,10:43:00,01-21.9600N,119-13.9100E,5,28.532
377,2004/10/11,10:44:00,01-22.1700N,119-13.9300E,6,28.319
378,2004/10/11,10:45:00,01-22.4000N,119-13.9600E,6,28.25
379,2004/10/11,10:46:00,01-22.6100N,119-13.9900E,6,28.529
380,2004/10/11,10:47:00,01-22.8200N,119-14.0200E,7,28.654
381,2004/10/11,10:48:00,01-23.0300N,119-14.0500E,6,28.67
382,2004/10/11,10:49:00,01-23.2400N,119-14.0700E,4,28.738
383,2004/10/11,10:50:00,01-23.4500N,119-14.0800E,3,28.753
384,2004/10/11,10:51:00,01-23.6500N,119-14.1000E,6,28.661
385,2004/10/11,10:52:00,01-23.8500N,119-14.1300E,8,28.637
386,2004/10/11,10:53:00,01-24.0600N,119-14.1700E,8,28.618
387,2004/10/11,10:54:00,01-24.2700N,119-14.1900E,5,28.709
388,2004/10/11,10:55:00,01-24.4700N,119-14.2100E,4,28.696
389,2004/10/11,10:56:00,01-24.6800N,119-14.2300E,4,28.666
390,2004/10/11,10:57:00,01-24.8900N,119-14.2500E,4,28.66
391,2004/10/11,10:58:00,01-25.0900N,119-14.2700E,5,28.679
392,2004/10/11,10:59:00,01-25.2900N,119-14.2900E,6,28.617
393,2004/10/11,11:00:00,01-25.5000N,119-14.3100E,6,28.652
394,2004/10/11,11:01:00,01-25.7000N,119-14.3300E,6,28.582
395,2004/10/11,11:02:00,01-25.9000N,119-14.3500E,4,28.701
396,2004/10/11,11:03:00,01-26.1100N,119-14.3700E,2,28.651
397,2004/10/11,11:04:00,01-26.3100N,119-14.3800E,4,28.595
398,2004/10/11,11:05:00,01-26.5000N,119-14.4000E,6,28.693
399,2004/10/11,11:06:00,01-26.7000N,119-14.4300E,7,28.737
400,2004/10/11,11:07:00,01-26.9200N,119-14.4600E,6,28.757
401,2004/10/11,11:08:00,01-27.1200N,119-14.4800E,6,28.616
402,2004/10/11,11:09:00,01-27.3100N,119-14.5000E,5,28.738
403,2004/10/11,11:10:00,01-27.5100N,119-14.5200E,5,28.773
404,2004/10/11,11:11:00,01-27.7100N,119-14.5400E,5,28.788
405,2004/10/11,11:12:00,01-27.9100N,119-14.5700E,6,28.826
406,2004/10/11,11:13:00,01-28.1100N,119-14.5900E,7,28.832
407,2004/10/11,11:14:00,01-28.3000N,119-14.6100E,5,28.873
408,2004/10/11,11:15:00,01-28.5000N,119-14.6300E,5,28.856
409,2004/10/11,11:16:00,01-28.7000N,119-14.6500E,7,28.862
410,2004/10/11,11:17:00,01-28.8900N,119-14.6700E,5,28.87
411,2004/10/11,11:18:00,01-29.0900N,119-14.6900E,4,28.897
412,2004/10/11,11:19:00,01-29.3000N,119-14.7100E,4,28.991
413,2004/10/11,11:20:00,01-29.5000N,119-14.7200E,4,28.929
414,2004/10/11,11:21:00,01-29.6900N,119-14.7400E,5,28.918
415,2004/10/11,11:22:00,01-29.8900N,119-14.7600E,5,28.946
416,2004/10/11,11:23:00,01-30.0800N,119-14.7700E,5,28.922
417,2004/10/11,11:24:00,01-30.2700N,119-14.7900E,4,28.952
418,2004/10/11,11:25:00,01-30.4700N,119-14.8100E,5,28.979
419,2004/10/11,11:26:00,01-30.6600N,119-14.8300E,6,28.981
420,2004/10/11,11:27:00,01-30.8500N,119-14.8500E,6,29.024
421,2004/10/11,11:28:00,01-31.0500N,119-14.8800E,6,29.028
422,2004/10/11,11:29:00,01-31.2400N,119-14.9000E,6,29.026
423,2004/10/11,11:30:00,01-31.4400N,119-14.9200E,5,29.038
424,2004/10/11,11:31:00,01-31.6300N,119-14.9300E,5,29.05
425,2004/10/11,11:32:00,01-31.8300N,119-14.9500E,4,29.087
426,2004/10/11,11:33:00,01-32.0200N,119-14.9700E,5,29.071
427,2004/10/11,11:34:00,01-32.2100N,119-14.9900E,6,28.993
428,2004/10/11,11:35:00,01-32.4100N,119-15.0100E,6,29.097